sat.trackr.live / text

‹ back to catalog

HULIANWANG DIGUI-90

NORAD 65998 · 2025-231D

PAYLOAD ACTIVE UNKNOWN

§ Identity

Operator
Country
PRC
Launch date
2025-10-16
Launch site
WSC
Launch vehicle
Mass (kg)
RCS (m²)

External: N2YO · Heavens-Above · Gunter

§ Orbital elements

Epoch: 2026-09-20T13:13:33.446784Z

Period
108.33 min
Inclination
49.9987°
Eccentricity
0.0000473
Mean motion
13.29329545 rev/d
Perigee alt
1,148.9 km
Apogee alt
1,149.6 km
Semi-major
7,527.4 km
B*
5.2050e-5
RAAN
193.6246°
Arg perigee
62.8525°
Mean anomaly
297.2395°
Rev number
4,557

§ Raw data

HULIANWANG DIGUI-901 65998U 25231D   26263.55108156 -.00000100  00000+0  52050-4 0  99972 65998  49.9987 193.6246 0000473  62.8525 297.2395 13.29329545 45579

JSON: /api/v1/satellites/65998 · /tle

For live sub-satellite position, see the globe view (requires WebGL).

§ Visibility from observer

Set your observer location to see the next 7 days of passes ≥ 10°. The values pass through the URL so the page stays shareable.

No JS? Fill the form by hand. The geolocation button needs JavaScript.